This is the latest recevied weather packets stored in our database for station/object N3PB. If no packets are shown the sender has not sent any weather packets the latest 10 day(s).
| Time | Temp. | Humidity | Pressure | Rain* | Wind** | Luminosity | Snow |
|---|---|---|---|---|---|---|---|
| 1778241396 | 3.33° C | 91% | 1015.7 hPa | 0 mm | - | - | - |
| 1778241099 | 3.33° C | 91% | 1015.7 hPa | 0 mm | - | - | - |
| 1778240796 | 2.78° C | 90% | 1015.6 hPa | 0 mm | - | - | - |
| 1778239896 | 2.78° C | 90% | 1015.4 hPa | 0 mm | - | - | - |
| 1778239299 | 2.78° C | 89% | 1015.2 hPa | 0 mm | - | - | - |
| 1778237199 | 2.78° C | 86% | 1015.3 hPa | 0 mm | - | - | - |
| 1778235999 | 2.78° C | 86% | 1015.3 hPa | 0 mm | - | - | - |
| 1778234496 | 2.78° C | 86% | 1015.3 hPa | 0 mm | - | - | - |
| 1778232999 | 2.78° C | 87% | 1015 hPa | 0 mm | - | - | - |
| 1778230596 | 3.33° C | 84% | 1015 hPa | 0 mm | - | - | - |
| 1778229999 | 3.33° C | 83% | 1015 hPa | 0 mm | - | - | - |
| 1778229096 | 3.89° C | 82% | 1015.1 hPa | 0 mm | - | - | - |
| 1778225496 | 5° C | 78% | 1014.7 hPa | 0 mm | - | - | - |
| 1778224896 | 5° C | 78% | 1014.7 hPa | 0 mm | - | - | - |
| 1778224296 | 5.56° C | 77% | 1014.7 hPa | 0 mm | - | - | - |
| 1778223999 | 5.56° C | 77% | 1014.7 hPa | 0 mm | - | - | - |
| 1778223099 | 6.67° C | 75% | 1014.7 hPa | 0 mm | - | - | - |
| 1778222496 | 6.67° C | 75% | 1014.7 hPa | 0 mm | - | - | - |
| 1778221002 | 6.67° C | 74% | 1014.8 hPa | 0 mm | - | - | - |
| 1778220399 | 6.11° C | 75% | 1014.7 hPa | 0 mm | - | - | - |
| 1778220096 | 6.11° C | 77% | 1014.8 hPa | 0 mm | - | - | - |
| 1778218299 | 6.67° C | 80% | 1014.6 hPa | 0 mm | - | - | - |
| 1778217999 | 6.67° C | 80% | 1014.6 hPa | 0 mm | - | - | - |
| 1778217096 | 6.67° C | 78% | 1014.4 hPa | 0 mm | - | - | - |
| 1778216799 | 7.22° C | 78% | 1014.3 hPa | 0 mm | - | - | - |
* Rain latest hour (hover to see other rain measurements)
** Current wind speed in m/s (hover to see current wind gust speed)